TimeMST,TemperatureF,Dew PointF,Humidity,Sea Level PressureIn,VisibilityMPH,Wind Direction,Wind SpeedMPH,Gust SpeedMPH,PrecipitationIn,Events,Conditions,WindDirDegrees,DateUTC
12:15 AM,30.2,24.8,80,30.13,10.0,Calm,Calm,-,N/A,,Clear,0,2013-11-29 07:15:00
12:35 AM,30.2,24.8,80,30.12,10.0,Calm,Calm,-,N/A,,Clear,0,2013-11-29 07:35:00
12:55 AM,30.2,24.8,80,30.12,10.0,SSE,4.6,-,N/A,,Clear,150,2013-11-29 07:55:00
1:15 AM,30.2,24.8,80,30.12,10.0,SSE,3.5,-,N/A,,Clear,150,2013-11-29 08:15:00
1:35 AM,30.2,24.8,80,30.11,10.0,SSE,5.8,-,N/A,,Clear,160,2013-11-29 08:35:00
1:55 AM,30.2,23.0,75,30.11,10.0,Calm,Calm,-,N/A,,Clear,0,2013-11-29 08:55:00
2:15 AM,28.4,21.2,74,30.12,10.0,Calm,Calm,-,N/A,,Clear,0,2013-11-29 09:15:00
2:35 AM,28.4,21.2,74,30.11,10.0,NE,4.6,-,N/A,,Clear,50,2013-11-29 09:35:00
2:55 AM,26.6,23.0,86,30.11,10.0,NNE,3.5,-,N/A,,Clear,30,2013-11-29 09:55:00
3:15 AM,26.6,21.2,80,30.11,10.0,NNE,4.6,-,N/A,,Clear,30,2013-11-29 10:15:00
3:35 AM,26.6,23.0,86,30.10,10.0,NNE,4.6,-,N/A,,Clear,30,2013-11-29 10:35:00
3:55 AM,26.6,23.0,86,30.10,10.0,NNE,4.6,-,N/A,,Clear,20,2013-11-29 10:55:00
4:15 AM,26.6,21.2,80,30.10,10.0,Calm,Calm,-,N/A,,Clear,0,2013-11-29 11:15:00
4:35 AM,26.6,23.0,86,30.10,10.0,Calm,Calm,-,N/A,,Clear,0,2013-11-29 11:35:00
4:55 AM,26.6,23.0,86,30.10,10.0,Calm,Calm,-,N/A,,Clear,0,2013-11-29 11:55:00
5:15 AM,26.6,24.8,93,30.10,10.0,Calm,Calm,-,N/A,,Clear,0,2013-11-29 12:15:00
5:35 AM,28.4,24.8,86,30.10,10.0,NNE,3.5,-,N/A,,Clear,20,2013-11-29 12:35:00
5:55 AM,28.4,23.0,80,30.11,10.0,Calm,Calm,-,N/A,,Clear,0,2013-11-29 12:55:00
6:15 AM,26.6,21.2,80,30.11,10.0,Calm,Calm,-,N/A,,Clear,0,2013-11-29 13:15:00
6:35 AM,28.4,23.0,80,30.10,10.0,Calm,Calm,-,N/A,,Clear,0,2013-11-29 13:35:00
6:55 AM,26.6,21.2,80,30.10,10.0,South,3.5,-,N/A,,Clear,190,2013-11-29 13:55:00
7:15 AM,28.4,23.0,80,30.10,10.0,South,3.5,-,N/A,,Clear,190,2013-11-29 14:15:00
7:35 AM,30.2,24.8,80,30.11,10.0,Calm,Calm,-,N/A,,Clear,0,2013-11-29 14:35:00
7:55 AM,30.2,26.6,86,30.11,10.0,Calm,Calm,-,N/A,,Clear,0,2013-11-29 14:55:00
8:15 AM,32.0,26.6,80,30.12,10.0,Calm,Calm,-,N/A,,Clear,0,2013-11-29 15:15:00
8:35 AM,33.8,28.4,81,30.12,10.0,Calm,Calm,-,N/A,,Clear,0,2013-11-29 15:35:00
8:55 AM,35.6,30.2,81,30.13,10.0,North,4.6,-,N/A,,Clear,10,2013-11-29 15:55:00
9:15 AM,33.8,28.4,81,30.14,10.0,NNE,3.5,-,N/A,,Clear,20,2013-11-29 16:15:00
9:35 AM,35.6,30.2,81,30.14,10.0,NNE,3.5,-,N/A,,Clear,30,2013-11-29 16:35:00
9:55 AM,39.2,30.2,70,30.13,10.0,Calm,Calm,-,N/A,,Clear,0,2013-11-29 16:55:00
10:15 AM,42.8,30.2,61,30.14,10.0,Calm,Calm,-,N/A,,Clear,0,2013-11-29 17:15:00
10:35 AM,44.6,32.0,61,30.13,10.0,Calm,Calm,-,N/A,,Clear,0,2013-11-29 17:35:00
10:55 AM,48.2,30.2,50,30.13,10.0,Calm,Calm,-,N/A,,Clear,0,2013-11-29 17:55:00
11:15 AM,51.8,28.4,41,30.12,10.0,East,3.5,-,N/A,,Clear,90,2013-11-29 18:15:00
11:35 AM,53.6,28.4,38,30.11,10.0,East,3.5,-,N/A,,Clear,90,2013-11-29 18:35:00
11:55 AM,55.4,28.4,36,30.10,10.0,ESE,5.8,-,N/A,,Clear,120,2013-11-29 18:55:00
12:15 PM,55.4,28.4,36,30.10,10.0,SE,5.8,-,N/A,,Clear,130,2013-11-29 19:15:00
12:35 PM,57.2,28.4,33,30.10,10.0,ESE,8.1,-,N/A,,Clear,120,2013-11-29 19:35:00
12:55 PM,57.2,28.4,33,30.09,10.0,East,8.1,-,N/A,,Clear,100,2013-11-29 19:55:00
1:15 PM,59.0,26.6,29,30.09,10.0,ESE,5.8,-,N/A,,Clear,120,2013-11-29 20:15:00
1:35 PM,60.8,26.6,27,30.09,10.0,ESE,4.6,-,N/A,,Clear,110,2013-11-29 20:35:00
1:55 PM,60.8,24.8,25,30.09,10.0,ESE,4.6,-,N/A,,Clear,110,2013-11-29 20:55:00
2:15 PM,60.8,24.8,25,30.09,10.0,SE,5.8,-,N/A,,Clear,130,2013-11-29 21:15:00
2:35 PM,60.8,26.6,27,30.08,10.0,South,8.1,-,N/A,,Clear,180,2013-11-29 21:35:00
2:55 PM,59.0,26.6,29,30.08,10.0,South,6.9,-,N/A,,Clear,170,2013-11-29 21:55:00
3:15 PM,57.2,26.6,31,30.09,10.0,South,6.9,-,N/A,,Clear,190,2013-11-29 22:15:00
3:35 PM,57.2,26.6,31,30.10,10.0,South,6.9,-,N/A,,Clear,190,2013-11-29 22:35:00
3:55 PM,55.4,26.6,33,30.10,10.0,South,5.8,-,N/A,,Clear,180,2013-11-29 22:55:00
4:15 PM,55.4,24.8,31,30.10,10.0,South,5.8,-,N/A,,Clear,170,2013-11-29 23:15:00
4:35 PM,53.6,23.0,30,30.11,10.0,South,6.9,-,N/A,,Clear,170,2013-11-29 23:35:00
4:55 PM,51.8,23.0,33,30.12,10.0,South,5.8,-,N/A,,Clear,170,2013-11-29 23:55:00
5:15 PM,50.0,23.0,35,30.13,10.0,South,6.9,-,N/A,,Clear,170,2013-11-30 00:15:00
5:35 PM,51.8,23.0,33,30.13,10.0,South,5.8,-,N/A,,Clear,180,2013-11-30 00:35:00
5:55 PM,48.2,23.0,37,30.13,10.0,South,4.6,-,N/A,,Clear,190,2013-11-30 00:55:00
6:15 PM,46.4,21.2,37,30.14,10.0,Calm,Calm,-,N/A,,Clear,0,2013-11-30 01:15:00
6:35 PM,44.6,21.2,39,30.14,10.0,SSE,4.6,-,N/A,,Clear,150,2013-11-30 01:35:00
6:55 PM,42.8,23.0,46,30.15,10.0,Calm,Calm,-,N/A,,Clear,0,2013-11-30 01:55:00
7:15 PM,44.6,21.2,39,30.15,10.0,Calm,Calm,-,N/A,,Clear,0,2013-11-30 02:15:00
7:35 PM,46.4,23.0,40,30.16,10.0,Calm,Calm,-,N/A,,Clear,0,2013-11-30 02:35:00
7:55 PM,44.6,21.2,39,30.16,10.0,Calm,Calm,-,N/A,,Clear,0,2013-11-30 02:55:00
8:15 PM,44.6,21.2,39,30.16,10.0,Calm,Calm,-,N/A,,Clear,0,2013-11-30 03:15:00
8:35 PM,42.8,21.2,42,30.15,10.0,North,4.6,-,N/A,,Clear,360,2013-11-30 03:35:00
8:55 PM,42.8,21.2,42,30.16,10.0,North,6.9,-,N/A,,Clear,10,2013-11-30 03:55:00
9:15 PM,41.0,21.2,45,30.17,10.0,NNE,4.6,-,N/A,,Clear,30,2013-11-30 04:15:00
9:35 PM,39.2,21.2,49,30.17,10.0,North,6.9,-,N/A,,Clear,10,2013-11-30 04:35:00
9:55 PM,35.6,19.4,52,30.18,10.0,Calm,Calm,-,N/A,,Clear,0,2013-11-30 04:55:00
10:15 PM,35.6,26.6,70,30.18,10.0,Calm,Calm,-,N/A,,Clear,0,2013-11-30 05:15:00
10:35 PM,35.6,26.6,70,30.18,10.0,SSW,5.8,-,N/A,,Clear,200,2013-11-30 05:35:00
10:55 PM,37.4,26.6,65,30.18,10.0,Calm,Calm,-,N/A,,Clear,0,2013-11-30 05:55:00
11:15 PM,37.4,23.0,56,30.18,10.0,Calm,Calm,-,N/A,,Clear,0,2013-11-30 06:15:00
11:35 PM,37.4,21.2,52,30.17,10.0,Calm,Calm,-,N/A,,Clear,0,2013-11-30 06:35:00
11:55 PM,35.6,23.0,60,30.16,10.0,Calm,Calm,-,N/A,,Clear,0,2013-11-30 06:55:00